Weather Roundup
Issued by NWS Chicago, IL

Home | Current Version | Previous Version | Text Only | Print | Product List | Glossary Off
Versions: 1 2 3 4 5 6 7 8 9 10 11 12 13 14 15 16 17 18 19 20 21 22 23 24 25 26 27 28 29 30 31 32 33 34 35 36 37 38 39 40 41 42 43 44 45 46 47 48 49 50

000
NZUS59 KLOT 062108
HRRLOT

CHICAGO AREA WEATHER ROUNDUP
NATIONAL WEATHER SERVICE CHICAGO/ROMEOVILLE IL
300 PM CST SAT FEB 06 2016

NOTE: "FAIR" INDICATES FEW OR NO CLOUDS BELOW 12,000 FEET WITH NO
SIGNIFICANT WEATHER AND/OR OBSTRUCTIONS TO VISIBILITY.

* THESE STATIONS ARE NOT UNDER NWS QUALITY CONTROL. THEY ALSO MAY NOT
  REPORT WEATHER SUCH AS PRECIPITATION OR FOG.

ILZ005-006-012>014-019>023-062200-
NORTHEAST ILLINOIS

CITY           SKY/WX    TMP DP  RH WIND       PRES   REMARKS
OHARE          MOSUNNY   40  28  62 W16       30.15F
MIDWAY         MOSUNNY   42  27  55 SW13      30.17F
AURORA         SUNNY     42  29  59 SW12      30.16F
LANSING*       MOSUNNY   40  29  65 SW9       30.19S
JOLIET*        SUNNY     43  30  60 SW8       30.18F
WAUKEGAN       SUNNY     38  28  67 W6        30.14S
DUPAGE AIRPORT SUNNY     40  27  59 SW12      30.15F
WHEELING       MOSUNNY   41  28  60 SW9       30.16F
KANKAKEE*      SUNNY     43  30  60 SW12      30.20S
MORRIS*          N/A     42  30  62 SW12      30.15F
LEWIS AIRPORT* SUNNY     41  29  63 SW15      30.17F
$$

WIZ051-052-058>065-066-070>072-062200-
SOUTHEAST WISCONSIN

CITY           SKY/WX    TMP DP  RH WIND       PRES   REMARKS
MILWAUKEE      CLOUDY    33  26  75 W14G22    30.13F WCI  23
KENOSHA*       MOSUNNY   36  28  73 W12       30.14F
RACINE*        CLOUDY    34  26  72 W12       30.15F WCI  25
BURLINGTON     SUNNY     34  26  74 W7        30.14S WCI  28
WAUKESHA       CLOUDY    30  25  80 SW15      30.13F WCI  19
WEST BEND      CLOUDY    32  27  80 SW8       30.10S WCI  25
$$

INZ001>003-010>013-019-020-062200-
NORTHWEST INDIANA

CITY           SKY/WX    TMP DP  RH WIND       PRES   REMARKS
GARY*          PTSUNNY   41  25  52 SW17      30.19S
MICHIGAN CITY* NOT AVBL
RENSSELAER*    NOT AVBL
VALPARAISO     MOSUNNY   41  27  57 SW15      30.19S
$$

LMZ740>746-062200-
SOUTHERN LAKE MICHIGAN

STATION/POSITION TIME  SKY/WX   TEMP WIND        PRES    VSBY
                                AIR  DIR/SP/G
                 (UTC)          (F)  (DEG/KT/KT) (MB)    (MI)
HARRISON CRIB    2000            39  240/  9/ 11   N/A
BURNHAM HARBOR   2100            41  250/  7/ 14   N/A
CALUMET HARBOR   2000            40  220/  9/ 15 1021.2F
BURNS HARBOR     2000            38  230/ 12/ 20 1022.7F
MICHIGAN CITY    2000            36  230/ 11/ 13   N/A
$$

ABBREVIATIONS USED IN REMARKS
   TC - TEMPERATURE IN CELSIUS
  WCI - WIND CHILL INDEX
   HX - HEAT INDEX
  VSB - VISIBILITY
$$



USA.gov is the U.S. government's official web portal to all federal, state and local government web resources and services.